Hourly Data Report for September 11, 2017

All times are specified in Local Standard Time (LST). Add 1 hour to adjust for Daylight Saving Time where and when it is observed.

KAMLOOPS A
BRITISH COLUMBIA

50°42'09.000" N
120°26'55.000" W
345.30 m
1163781
71887
YKA

Download Data

Hourly Data (September 2017)
Hourly Data Report for September 11, 2017
Temp Definition
°C
Dew Point Temp Definition
°C
Rel Hum Definition
%
Wind Dir Definition
10's deg

Wind Spd Definition
km/h
Visibility Definition
km
Stn Press Definition
kPa
Hmdx Definition


Wind Chill Definition


Weather Definition


TIME
00:00 Legend Double Dagger 16.1 5.4 49 5 9 64.4 97.93     LegendNANA
01:00 Legend Double Dagger 15.1 6.1 55 21 7 64.4 97.94     Mostly Cloudy
02:00 Legend Double Dagger 14.7 6.2 56 24 4 64.4 97.93     LegendNANA
03:00 Legend Double Dagger 14.7 6.1 56 21 9 64.4 97.91     LegendNANA
04:00 Legend Double Dagger 13.8 6.5 61 18 4 64.4 97.88     Mostly Cloudy
05:00 Legend Double Dagger 14.3 6.7 60 8 25 64.4 97.85     LegendNANA
06:00 Legend Double Dagger 13.7 7.2 64 10 25 64.4 97.84     LegendNANA
07:00 Legend Double Dagger 14.2 8.2 67 10 21 64.4 97.79     Mostly Cloudy
08:00 Legend Double Dagger 16.2 8.3 59 11 19 64.4 97.72     LegendNANA
09:00 Legend Double Dagger 18.4 7.8 49 19 4 64.4 97.69     LegendNANA
10:00 Legend Double Dagger 20.8 8.1 44 10 7 64.4 97.64     Mostly Cloudy
11:00 Legend Double Dagger 22.1 8.3 41 13 10 64.4 97.55     LegendNANA
12:00 Legend Double Dagger 24.3 8.3 35 11 15 64.4 97.42 25   LegendNANA
13:00 Legend Double Dagger 27.5 8.8 30 10 18 64.4 97.27 28   Mostly Cloudy
14:00 Legend Double Dagger 31.8 5.3 18 24 17 64.4 97.16 31   LegendNANA
15:00 Legend Double Dagger 31.5 5.8 19 23 34 64.4 97.09 31   LegendNANA
16:00 Legend Double Dagger 30.2 6.9 23 19 27 64.4 97.07 30   Mostly Cloudy
17:00 Legend Double Dagger 28.8 7.0 25 20 31 64.4 97.06 29   LegendNANA
18:00 Legend Double Dagger 27.9 6.8 26 18 34 64.4 97.03 28   LegendNANA
19:00 Legend Double Dagger 27.2 7.5 28 22 30 64.4 97.06 27   Mostly Cloudy
20:00 Legend Double Dagger 26.3 7.6 30 21 25 64.4 97.11 27   LegendNANA
21:00 Legend Double Dagger 23.9 8.2 36 29 11 64.4 97.24     LegendNANA
22:00 Legend Double Dagger 21.6 9.7 46 24 5 64.4 97.27     Mostly Cloudy
23:00 Legend Double Dagger 21.6 11.3 51 19 8 64.4 97.29     LegendNANA

Notes on Data Quality.

Legend

  • E = Estimated
  • M = Missing
  • NA = Not Available
  • ‡ = Partner data that is not subject to review by the National Climate Archives
Date modified: